Flag for Germany Weather past 2 weeks in Weyhe, Lower Saxony, Germany

Now
66 °F

Partly sunny.


Feels Like: 66 °F
Forecast: 65 / 80 °F
Wind: 8 mph from East

Location: Bremen Airport

Current Time: Jul 28, 2014 at 10:54:04 AM

Latest Report: Jul 28, 2014 at 10:20 AM


Visibility: 4 mi

Pressure: 29.95 "Hg

Humidity: 88%

Dew point: 63 °F

Location of WeyheLocation

Historic Weather in Weyhe — Graph

°F

Weyhe temperature yesterday

Maximum temperature yesterday: 79 °F (at 2:20 PM)
Minimum temperature yesterday: 59 °F (at 4:20 AM)
Average temperature yesterday: 70 °F

Past Weeks' High & Low Weather Summary

 TemperatureHumidityPressure
High90 °F (Jul 19, 1:50 PM)100% (Jul 13, 9:20 PM)30.18 "Hg (Jul 13, 9:20 PM)
Low54 °F (Jul 17, 4:50 AM)27% (Jul 19, 4:20 PM)29.68 "Hg (Jul 13, 2:20 PM)
Average70 °F72%29.98 "Hg
* Reported Jul 13 9:20 AM — Jul 28 9:50 AM, Weyhe, Weather by CustomWeather, © 2014

Note: Actual official high and low records may vary slightly from our data, if they occured in-between our weather recording intervals... More about our weather records

Advertising

Weyhe weather history for previous 24 hours

 ConditionsComfort  
Time TempWeatherWind HumidityBarometerVisibility
9:50 AM
Jul 28
68 °FPartly sunny.8 mph88%29.95 "Hg4 mi
9:20 AM68 °FPartly sunny.7 mph88%29.95 "Hg4 mi
8:50 AM68 °FBroken clouds.3 mph94%29.95 "Hg4 mi
8:20 AM66 °FPartly sunny.6 mph94%29.95 "Hg4 mi
7:50 AM64 °FPartly sunny.3 mph100%29.95 "Hg4 mi
7:20 AM64 °FFog.2 mph94%29.95 "Hg2 mi
6:50 AM63 °FFog.5 mph100%29.95 "Hg1 mi
6:20 AM64 °FPassing clouds.3 mph94%29.95 "Hg1 mi
5:50 AM63 °FPassing clouds.1 mph100%29.95 "Hg1 mi
5:20 AM63 °FFog.2 mph100%29.95 "Hg1 mi
4:20 AM57 °FFog.No wind100%29.95 "Hg1 mi
3:50 AM59 °FFog.1 mph94%29.95 "Hg1 mi
3:20 AM61 °FFog.2 mph100%29.95 "Hg1 mi
2:50 AM61 °FFog.2 mph100%29.95 "Hg3 mi
2:20 AM63 °FClear.1 mph94%29.95 "Hg10 mi
1:20 AM66 °FClear.6 mph88%29.95 "Hg10 mi
12:50 AM66 °FClear.2 mph88%29.98 "Hg10 mi
12:20 AM68 °FClear.5 mph83%29.95 "Hg10 mi
11:50 PM
Jul 27
68 °FClear.7 mph83%29.95 "Hg10 mi
11:20 PM68 °FClear.6 mph83%29.95 "Hg10 mi
10:50 PM70 °FClear.9 mph83%29.98 "Hg10 mi
10:20 PM70 °FSunny.7 mph83%29.98 "Hg10 mi
9:50 PM72 °FSunny.7 mph78%29.95 "Hg10 mi
9:20 PM72 °FSunny.9 mph78%29.95 "Hg10 mi
8:50 PM73 °FPartly sunny.7 mph74%29.95 "HgN/A
8:20 PM73 °FPartly sunny.8 mph69%29.95 "HgN/A
7:50 PM75 °FPartly sunny.10 mph65%29.95 "HgN/A
7:20 PM75 °FPartly sunny.9 mph61%29.92 "HgN/A
6:50 PM75 °FPartly sunny.12 mph61%29.92 "HgN/A
6:20 PM77 °FPartly sunny.12 mph57%29.92 "HgN/A
5:50 PM77 °FScattered clouds.12 mph61%29.92 "HgN/A
5:20 PM77 °FScattered clouds.13 mph57%29.92 "HgN/A
4:20 PM79 °FPassing clouds.10 mph58%29.92 "HgN/A
3:50 PM79 °FPassing clouds.10 mph58%29.92 "HgN/A
3:20 PM79 °FPassing clouds.10 mph54%29.92 "HgN/A
2:50 PM79 °FPassing clouds.9 mph54%29.92 "HgN/A
2:20 PM79 °FPassing clouds.10 mph54%29.95 "HgN/A
1:50 PM77 °FScattered clouds.13 mph61%29.95 "HgN/A
1:20 PM77 °FScattered clouds.12 mph61%29.95 "HgN/A
12:50 PM75 °FPassing clouds.12 mph65%29.95 "HgN/A
12:20 PM77 °FScattered clouds.7 mph65%29.95 "HgN/A
11:50 AM75 °FScattered clouds.9 mph65%29.95 "HgN/A
11:20 AM77 °FPassing clouds.9 mph65%29.92 "HgN/A
10:50 AM75 °FPassing clouds.8 mph69%29.92 "HgN/A
10:20 AM73 °FPassing clouds.8 mph74%29.92 "Hg5 mi
Weather by CustomWeather, © 2014

See weather overviewHow to use our weather pages